TimeCST,TemperatureF,Dew PointF,Humidity,Sea Level PressureIn,VisibilityMPH,Wind Direction,Wind SpeedMPH,Gust SpeedMPH,PrecipitationIn,Events,Conditions,WindDirDegrees,DateUTC
12:15 AM,37.4,28.4,70,30.37,10.0,Calm,Calm,-,N/A,,Clear,0,2013-01-07 06:15:00
12:35 AM,33.8,28.4,81,30.37,10.0,Calm,Calm,-,N/A,,Clear,0,2013-01-07 06:35:00
12:55 AM,35.6,28.4,75,30.36,10.0,Calm,Calm,-,N/A,,Clear,0,2013-01-07 06:55:00
1:15 AM,35.6,28.4,75,30.35,10.0,Calm,Calm,-,N/A,,Clear,0,2013-01-07 07:15:00
1:35 AM,35.6,28.4,75,30.35,10.0,Calm,Calm,-,N/A,,Clear,0,2013-01-07 07:35:00
1:55 AM,35.6,28.4,75,30.35,10.0,Calm,Calm,-,N/A,,Clear,0,2013-01-07 07:55:00
2:15 AM,32.0,28.4,87,30.34,10.0,Calm,Calm,-,N/A,,Clear,0,2013-01-07 08:15:00
2:35 AM,33.8,28.4,81,30.34,10.0,Calm,Calm,-,N/A,,Clear,0,2013-01-07 08:35:00
3:15 AM,33.8,28.4,81,30.34,10.0,Calm,Calm,-,N/A,,Clear,0,2013-01-07 09:15:00
3:35 AM,32.0,26.6,80,30.34,10.0,Calm,Calm,-,N/A,,Clear,0,2013-01-07 09:35:00
3:55 AM,33.8,26.6,75,30.34,10.0,Calm,Calm,-,N/A,,Clear,0,2013-01-07 09:55:00
4:15 AM,32.0,26.6,80,30.34,10.0,Calm,Calm,-,N/A,,Clear,0,2013-01-07 10:15:00
4:35 AM,32.0,26.6,80,30.33,10.0,Calm,Calm,-,N/A,,Clear,0,2013-01-07 10:35:00
4:55 AM,33.8,28.4,81,30.33,10.0,Calm,Calm,-,N/A,,Clear,0,2013-01-07 10:55:00
5:15 AM,33.8,28.4,81,30.33,10.0,Calm,Calm,-,N/A,,Clear,0,2013-01-07 11:15:00
5:35 AM,32.0,26.6,80,30.33,10.0,Calm,Calm,-,N/A,,Clear,0,2013-01-07 11:35:00
5:55 AM,32.0,26.6,80,30.33,10.0,Calm,Calm,-,N/A,,Clear,0,2013-01-07 11:55:00
8:50 AM,37.4,30.2,75,30.35,10.0,Calm,Calm,-,N/A,,Clear,0,2013-01-07 14:50:00
9:50 AM,41.0,30.2,65,30.35,10.0,Calm,Calm,-,N/A,,Clear,0,2013-01-07 15:50:00
10:50 AM,48.2,32.0,54,30.34,10.0,SSE,6.9,-,N/A,,Clear,150,2013-01-07 16:50:00
11:50 AM,50.0,32.0,50,30.33,10.0,SE,9.2,-,N/A,,Clear,130,2013-01-07 17:50:00
12:50 PM,51.8,33.8,50,30.28,10.0,SSE,11.5,-,N/A,,Clear,150,2013-01-07 18:50:00
1:50 PM,53.6,32.0,44,30.23,10.0,SSE,8.1,-,N/A,,Clear,150,2013-01-07 19:50:00
2:50 PM,53.6,30.2,41,30.20,10.0,SE,6.9,-,N/A,,Clear,140,2013-01-07 20:50:00
3:50 PM,53.6,30.2,41,30.18,10.0,SE,6.9,-,N/A,,Clear,130,2013-01-07 21:50:00
4:50 PM,53.6,30.2,41,30.20,10.0,SE,6.9,-,N/A,,Clear,140,2013-01-07 22:50:00
5:50 PM,51.8,30.2,44,30.18,10.0,Calm,Calm,-,N/A,,Clear,0,2013-01-07 23:50:00
8:15 PM,46.4,32.0,57,30.17,10.0,SE,4.6,-,N/A,,Clear,140,2013-01-08 02:15:00
8:55 PM,44.6,32.0,61,30.15,10.0,ESE,3.5,-,N/A,,Clear,110,2013-01-08 02:55:00
10:55 PM,46.4,32.0,57,30.15,10.0,SE,3.5,-,N/A,,Mostly Cloudy,130,2013-01-08 04:55:00